Wind_Speed
31 32 33 35 36 37 38 38 38 37 36 35 34 32 31 30 28 27 26 25 25 24 22 21 20 19 18 17 16 15 15 14 14 14 14 13 13 13 13 13 13 13 14 14 14 14 14 14 14 14 15 15 15 15 15 15 16 16 16 16 16 16 16 16 16 16 16 16 15 15 15 15 15 15 15 15 16 15 15 15 15 16 16 16 17 17
34 35 36 37 37 37 37 37 36 35 34 33 32 31 29 28 26 26 25 24 24 22 21 20 19 18 17 16 15 15 14 14 14 14 14 14 14 13 13 14 14 14 14 14 14 14 14 15 15 15 15 15 15 16 16 16 16 16 16 17 17 17 17 17 17 17 17 16 16 16 16 16 16 16 16 16 16 16 16 16 16 16 16 16 17 17
36 37 38 38 37 36 35 35 34 34 33 32 31 29 27 26 25 25 24 24 23 21 20 19 18 17 16 15 15 14 14 14 14 14 14 14 14 14 14 14 14 14 14 14 15 15 15 15 15 15 15 16 16 16 16 16 16 17 17 17 17 17 17 17 17 17 17 17 17 17 17 16 16 16 16 16 16 16 16 16 16 16 16 17 17 17
39 39 39 38 36 35 34 34 33 32 31 30 29 27 26 25 24 24 23 22 21 20 19 18 17 16 15 15 14 14 14 14 14 14 14 14 14 14 14 14 14 15 15 15 15 15 15 15 15 16 16 16 16 16 16 16 17 17 17 17 17 18 18 18 18 18 18 17 17 17 17 17 17 17 17 17 17 16 16 16 16 16 17 17 17 17
40 40 38 37 35 34 33 32 31 30 29 28 27 25 24 24 23 22 22 21 20 19 18 17 16 15 15 14 14 14 14 14 14 14 14 14 14 14 14 15 15 15 15 15 15 15 15 15 16 16 16 16 16 16 17 17 17 17 17 18 18 18 18 18 18 18 18 18 18 18 18 17 17 17 17 17 17 17 17 17 17 17 17 17 17 17
39 38 36 35 34 33 32 30 29 28 27 26 25 24 23 23 22 21 20 19 19 18 17 16 15 15 15 14 14 14 14 14 14 14 14 14 14 14 15 15 15 15 15 15 15 15 16 16 16 16 16 16 17 17 17 17 17 17 17 18 18 18 18 18 18 18 18 18 18 18 18 18 18 18 17 17 17 17 17 17 17 17 17 17 17 17
36 35 34 33 32 31 30 28 27 26 25 25 24 23 23 22 21 20 19 18 17 16 16 15 15 15 15 14 14 14 14 14 14 14 14 14 14 14 15 15 15 15 15 15 15 15 16 16 16 16 17 17 17 17 17 17 17 17 17 18 18 18 18 18 18 18 18 18 18 18 18 18 18 18 18 18 17 17 17 17 17 17 17 17 17 17
33 32 31 31 30 29 27 26 25 25 24 24 23 22 22 20 19 18 17 17 16 15 15 14 14 15 15 15 15 15 15 14 14 14 14 14 14 15 15 15 15 15 15 15 15 16 16 16 16 16 17 17 17 17 17 17 17 17 17 18 18 18 18 18 18 18 18 18 18 18 18 18 18 18 18 18 18 18 17 17 17 17 17 17 17 17
31 30 29 28 27 26 26 25 24 23 23 23 22 21 20 19 18 17 16 15 15 14 14 14 14 14 15 15 15 15 15 15 14 14 14 14 14 15 15 15 15 15 15 15 16 16 16 16 16 16 17 17 17 17 17 17 17 17 17 18 18 18 18 18 18 18 18 18 18 18 18 18 18 18 18 18 18 18 18 17 17 17 17 17 17 17
28 27 26 25 25 24 24 23 23 22 22 22 21 20 19 18 16 15 15 14 14 14 14 14 14 14 14 15 15 15 15 15 15 15 14 14 15 15 15 15 15 15 15 15 16 16 16 16 16 16 16 17 17 17 17 17 17 17 17 17 18 18 18 18 18 18 18 18 18 18 18 18 18 18 18 18 18 18 18 18 18 18 18 18 18 18
25 25 24 24 23 23 23 22 22 21 21 20 19 18 17 16 15 14 14 13 13 14 14 14 14 14 14 15 15 15 15 15 15 15 15 15 15 15 16 16 16 15 16 16 16 16 16 16 16 16 16 16 16 16 16 17 17 17 17 17 17 18 18 18 18 18 18 18 18 18 18 18 18 18 18 18 18 18 18 18 18 18 18 18 18 18
23 23 22 22 22 22 22 21 21 20 19 19 17 16 15 15 14 13 13 13 13 14 14 14 14 14 14 15 15 15 16 15 15 15 15 15 15 15 16 16 16 16 16 16 16 16 16 16 16 16 16 16 16 16 16 16 17 17 17 17 17 18 18 18 18 18 18 18 18 18 18 18 18 18 18 18 18 18 18 19 19 19 19 19 19 19
22 22 22 22 21 21 21 20 19 19 18 17 16 15 14 14 13 13 13 13 13 14 14 14 14 15 15 15 15 15 15 15 15 15 15 15 15 16 16 16 16 16 16 16 16 16 16 16 16 16 16 16 16 16 16 16 17 17 17 17 17 17 17 18 18 18 18 18 18 18 18 18 18 18 18 18 18 19 19 19 19 19 19 19 19 19
21 21 21 21 21 20 19 18 18 17 16 16 15 14 13 13 12 12 13 13 14 14 15 15 15 15 15 15 15 15 15 15 15 15 15 15 16 16 16 16 16 16 16 16 16 16 16 16 16 16 16 16 16 16 16 16 17 17 17 17 17 17 17 18 18 18 18 18 18 18 18 18 19 19 19 19 19 19 19 19 19 20 20 20 20 20
21 21 21 20 19 18 17 17 16 16 15 14 14 13 12 12 12 13 13 13 14 15 15 15 15 15 16 16 15 15 15 15 15 15 15 15 16 17 16 16 16 16 16 16 16 16 16 16 16 16 16 16 16 16 16 17 17 17 17 17 17 18 18 18 18 18 18 18 18 19 19 19 19 19 19 19 19 20 20 20 20 20 20 20 20 20
20 20 19 18 17 17 16 15 15 14 14 13 13 13 12 12 13 13 13 14 14 15 15 15 15 15 16 16 16 16 15 15 15 15 15 16 17 17 17 16 16 16 17 17 17 17 17 16 16 16 16 16 16 17 17 17 17 17 17 17 18 18 18 18 18 18 18 19 19 19 19 19 20 20 20 20 20 20 20 20 20 20 21 21 21 21
19 18 17 16 15 15 14 14 13 13 13 13 13 12 13 13 13 13 14 14 15 15 15 15 15 15 15 16 16 16 16 16 15 15 16 16 17 17 17 16 16 16 17 17 17 17 17 17 17 17 17 17 17 17 17 17 17 18 18 18 18 18 18 18 19 19 19 19 19 20 20 20 20 20 20 21 21 21 21 21 21 21 21 21 21 21
17 16 15 14 14 13 13 13 13 12 12 12 13 13 13 13 14 14 14 14 15 15 15 15 15 15 15 15 16 17 17 16 16 16 16 17 17 18 17 17 16 17 17 17 17 17 17 17 17 17 17 17 17 17 17 18 18 18 18 18 18 19 19 19 19 19 20 20 20 20 20 21 21 21 21 21 21 21 21 21 22 21 21 21 21 21
14 14 13 13 13 13 12 12 12 12 12 13 13 13 13 14 14 14 14 14 14 14 14 14 15 15 15 15 16 17 17 17 17 16 17 17 17 18 18 17 17 17 17 17 18 18 18 18 18 18 18 18 18 18 18 18 18 18 18 19 19 19 19 20 20 20 20 21 21 21 21 21 22 22 22 22 22 22 22 22 22 22 22 22 22 22
13 12 12 12 12 12 12 12 13 13 13 13 13 13 14 14 14 14 14 14 14 14 14 14 15 15 15 16 17 18 18 17 17 17 17 17 18 18 18 17 17 17 17 18 18 18 18 18 18 18 18 18 18 18 18 18 18 19 19 19 20 20 20 20 21 21 21 22 22 22 22 22 22 23 23 23 23 23 23 23 23 23 22 22 22 22
12 11 12 12 12 12 12 13 13 13 13 13 13 13 13 14 14 14 14 14 14 14 14 15 15 15 16 16 17 18 18 18 17 17 17 18 18 18 18 18 18 17 18 18 19 19 19 19 19 19 19 19 19 19 19 19 19 19 19 20 20 20 21 21 22 22 22 23 23 23 23 23 23 23 23 23 23 23 23 23 23 23 23 23 23 23
11 12 12 12 12 12 13 13 13 13 13 13 13 13 13 13 13 13 14 14 14 14 15 15 15 16 16 16 17 18 18 18 18 18 18 18 18 19 19 18 18 18 18 18 19 19 19 19 19 19 19 19 19 19 19 19 19 20 20 20 21 21 22 22 22 23 23 23 24 24 24 24 24 24 24 24 24 24 24 24 24 24 24 23 23 23
12 12 12 12 13 13 13 13 13 13 13 13 12 13 13 13 13 13 13 14 14 15 15 15 16 16 17 17 17 18 18 18 18 18 18 18 18 19 19 19 18 18 18 19 19 20 20 20 20 20 20 20 20 20 20 20 20 20 21 21 21 22 22 23 23 23 24 24 24 24 24 24 24 24 24 24 24 24 24 24 24 24 24 24 24 24
12 12 12 13 13 13 13 13 13 13 12 12 12 12 13 13 13 13 14 14 15 15 16 16 17 17 17 17 17 18 18 18 18 18 18 18 18 19 19 19 19 19 19 19 20 20 20 20 20 20 20 20 20 20 20 21 21 21 22 22 22 23 23 23 24 24 24 24 24 25 25 25 25 25 25 25 25 24 24 24 24 24 24 24 24 24
13 13 13 13 13 13 13 13 13 12 12 12 12 12 13 13 13 14 14 15 15 16 16 17 17 17 17 17 17 18 18 18 18 18 18 18 18 19 20 20 19 19 19 20 20 20 20 20 20 20 20 20 21 21 21 21 22 22 23 23 23 24 24 24 24 24 24 25 25 25 25 25 25 25 25 25 25 24 24 24 24 24 24 24 24 24
13 13 12 13 13 13 13 13 12 12 12 12 12 13 13 13 14 14 15 15 16 16 16 17 17 17 17 17 18 18 18 18 18 18 18 18 19 19 20 20 20 19 19 20 20 20 20 20 21 21 21 21 21 22 22 22 23 23 24 24 24 24 25 25 25 25 25 25 25 25 25 25 25 25 25 25 24 24 24 24 24 24 24 24 24 24
12 12 12 12 12 12 13 12 12 12 12 12 13 13 13 14 14 15 15 16 16 16 16 17 17 17 17 17 18 18 18 18 18 18 18 18 19 19 20 20 20 20 19 20 20 21 21 21 21 22 22 22 22 22 23 23 24 24 24 25 25 25 25 25 26 25 25 25 25 25 25 25 24 24 24 24 24 24 24 24 24 24 24 24 24 24
12 12 12 12 12 12 12 12 12 12 13 13 13 14 14 14 15 15 15 16 16 16 16 17 17 17 17 17 17 18 18 18 19 19 19 19 19 20 20 20 20 20 20 20 21 21 22 22 22 22 23 23 23 23 23 24 24 25 25 25 25 26 26 26 26 25 25 25 25 25 24 24 24 24 24 24 23 23 23 23 23 23 23 23 24 24
12 12 12 12 12 12 13 13 13 13 13 13 14 14 14 15 15 15 15 16 16 16 16 17 17 17 17 17 17 18 18 19 19 19 19 19 19 20 20 20 20 20 20 20 21 22 22 23 23 23 23 23 23 24 24 24 25 25 25 25 26 26 26 26 25 25 25 25 25 24 24 24 24 23 23 23 23 23 23 23 23 23 23 23 24 24
12 12 12 12 12 12 12 13 13 13 13 13 14 14 15 15 15 15 15 16 16 16 16 16 17 17 17 17 17 18 18 19 19 19 19 19 19 20 20 20 20 21 21 21 21 22 23 24 24 24 24 24 24 24 25 25 25 25 26 26 26 26 25 25 25 25 25 24 24 24 23 23 23 23 23 22 22 22 22 23 23 23 23 23 24 24
12 12 12 12 12 12 12 12 13 13 13 13 14 14 14 15 15 15 15 16 16 16 16 17 17 17 17 17 17 17 18 19 20 20 20 19 19 20 20 20 21 21 21 21 21 22 23 24 25 25 25 24 24 25 25 25 26 26 26 26 26 26 25 25 25 24 24 24 24 23 23 23 22 22 22 22 22 22 22 22 23 23 23 23 24 25
12 12 12 12 12 12 12 12 12 13 13 13 14 14 14 15 15 15 15 16 16 16 16 17 17 18 18 18 18 18 18 19 20 20 20 19 20 20 21 21 21 21 22 22 22 22 23 24 25 26 26 25 25 25 25 26 26 26 26 26 26 25 25 25 24 24 24 23 23 23 22 22 22 22 22 22 22 22 22 22 23 23 23 24 24 25
12 12 12 12 12 12 12 12 13 13 13 14 14 14 15 15 15 15 16 16 16 17 17 17 17 18 18 18 18 18 18 19 20 20 20 20 20 20 21 21 21 21 22 22 22 22 23 24 25 26 27 26 26 26 26 26 26 26 26 26 25 25 25 24 24 23 23 23 22 22 22 22 21 21 21 22 22 22 22 23 23 24 24 24 25 26
11 11 11 12 12 12 12 13 13 13 14 14 14 15 15 15 16 16 16 17 17 17 17 17 18 18 18 19 19 19 19 19 20 20 21 20 20 21 21 21 21 21 22 22 22 23 23 24 25 26 27 27 27 26 26 26 26 26 26 26 25 25 25 24 24 23 23 22 22 22 21 21 21 21 21 21 22 22 23 23 24 24 25 25 26 26
11 11 12 12 12 13 13 13 13 14 14 14 15 15 16 16 17 17 17 18 18 18 18 18 19 19 19 19 19 19 19 20 21 21 21 21 21 21 21 21 22 22 22 22 23 23 23 24 25 26 27 27 27 27 27 27 26 26 26 26 25 25 24 24 23 23 22 22 22 21 21 21 21 21 21 22 22 22 23 24 24 25 25 26 26 27
12 12 12 13 13 13 13 14 14 14 15 15 15 16 16 17 17 18 18 18 19 19 19 20 20 20 20 20 20 20 20 21 21 22 22 22 22 22 21 22 22 22 22 22 23 23 23 24 25 26 27 27 28 28 28 27 27 26 26 26 25 25 24 24 23 23 22 22 21 21 21 21 21 21 21 22 22 23 23 24 25 25 26 26 27 27
12 13 13 13 14 14 14 14 15 15 15 16 16 16 17 17 18 18 19 19 19 20 20 20 21 21 21 21 21 21 21 21 22 22 22 22 22 22 22 22 22 22 22 22 23 23 23 24 25 26 26 27 27 28 28 28 27 27 26 25 25 24 24 24 23 22 22 22 21 21 21 21 21 21 21 22 23 23 24 24 25 26 26 27 27 28
13 13 14 14 14 14 15 15 15 15 16 16 16 17 17 18 18 19 19 19 20 20 21 21 21 21 22 22 22 22 22 22 22 22 22 22 22 22 22 22 22 22 22 22 23 23 23 24 24 25 26 27 28 28 28 28 27 27 26 26 25 24 24 23 23 22 22 22 21 21 21 21 21 21 22 22 23 23 24 25 25 26 26 27 27 28
13 13 14 14 14 14 15 15 15 16 16 16 17 17 18 18 19 19 19 20 20 20 21 21 21 22 22 22 22 22 22 22 22 22 22 22 22 22 22 22 22 22 23 23 23 23 23 24 24 25 26 27 27 28 29 28 28 27 26 26 25 24 24 23 23 22 22 22 21 21 21 21 21 22 22 23 23 24 24 25 25 26 26 27 27 28
13 14 14 14 14 14 15 15 15 16 16 17 17 18 18 18 19 19 19 20 20 20 21 21 21 22 22 23 23 23 22 22 22 22 22 22 22 22 22 22 22 22 23 23 23 23 24 24 24 25 25 26 27 28 28 28 28 27 26 26 25 25 24 24 23 23 22 22 21 21 21 21 22 22 22 23 23 24 24 25 25 26 26 27 27 28
14 14 14 14 15 15 15 15 16 16 16 17 17 18 18 19 19 19 20 20 20 21 21 21 22 22 22 23 23 23 22 22 22 22 22 22 22 22 22 22 22 23 23 23 23 24 24 24 24 25 25 25 26 27 28 28 28 27 26 26 26 25 25 24 24 23 23 22 22 22 22 22 22 22 23 23 24 24 24 25 25 26 27 27 27 28
14 14 15 15 15 15 16 16 16 17 17 17 17 18 18 19 19 20 20 20 21 21 21 22 22 22 22 23 23 22 22 22 22 22 22 22 22 22 22 23 23 23 23 23 24 24 25 25 25 25 25 25 26 26 27 28 28 27 26 26 26 26 25 25 24 24 23 22 22 22 22 22 22 23 23 23 24 24 25 25 25 26 26 27 28 28
15 15 16 16 16 16 17 17 17 17 18 18 18 18 19 19 20 20 20 21 21 22 22 22 22 23 23 23 23 23 22 22 22 22 22 22 22 22 23 23 23 23 24 24 24 24 25 25 25 25 26 25 25 26 27 27 28 27 26 26 25 25 25 25 25 24 24 23 23 23 22 22 22 23 23 24 24 24 25 25 26 26 27 27 27 28
17 17 17 17 17 18 18 18 18 18 19 19 19 20 20 20 21 21 21 22 22 22 23 23 23 23 24 24 24 23 23 22 22 23 23 23 23 23 23 23 24 24 24 24 24 25 25 26 26 26 26 26 26 26 27 27 28 27 26 26 25 25 25 25 25 25 24 24 24 23 23 23 23 23 23 24 24 25 25 26 26 27 27 27 28 28
18 18 18 19 19 19 19 19 20 20 20 21 21 21 21 22 22 22 22 22 23 23 23 24 24 24 25 25 25 25 24 24 23 23 23 23 24 24 24 24 24 24 24 25 25 25 25 26 26 26 27 26 26 26 27 27 27 27 27 26 25 25 25 25 25 25 25 24 24 24 24 23 23 23 23 24 24 25 25 26 26 27 27 28 28 28
19 19 20 20 20 20 20 21 21 21 22 22 22 22 23 23 23 23 24 24 24 24 24 24 25 25 25 26 26 26 26 25 25 24 24 24 24 24 24 24 24 24 24 25 25 26 26 26 26 27 27 27 27 27 27 27 27 27 27 26 25 25 25 25 25 25 25 25 24 24 24 24 23 23 23 23 24 25 25 26 26 27 28 28 28 28
20 21 21 21 21 21 22 22 22 22 23 23 23 24 24 24 25 25 25 25 25 25 25 25 25 26 26 27 27 28 27 27 27 26 26 26 26 25 25 25 25 25 25 25 25 26 26 27 27 27 27 27 27 27 28 28 28 27 27 26 26 25 25 26 26 25 25 25 25 25 24 24 24 23 23 23 24 24 25 26 27 27 28 29 29 29
22 22 22 22 22 23 23 23 23 23 24 24 25 25 25 26 26 26 26 26 26 26 26 26 26 26 27 28 28 29 29 28 28 28 27 27 27 26 26 26 26 26 26 26 26 26 27 27 27 27 27 27 27 27 28 28 28 27 27 26 26 26 26 26 26 26 26 25 25 25 25 24 24 24 23 23 23 24 24 25 26 27 28 29 29 29
23 23 23 23 24 24 24 24 24 25 25 25 26 26 26 27 27 27 27 27 27 26 26 26 26 27 27 28 29 29 30 30 30 29 29 28 28 28 27 27 27 27 27 27 27 27 27 28 27 27 27 27 27 27 27 28 28 27 27 27 26 26 26 26 26 26 26 26 26 25 25 25 24 24 24 23 23 23 24 24 25 27 28 28 29 29
24 24 24 25 25 25 25 25 25 26 26 26 27 27 27 27 27 27 27 27 26 26 26 27 27 27 27 28 29 30 30 31 31 31 31 30 30 29 29 29 29 29 28 28 29 29 28 28 28 28 28 28 28 27 27 27 27 27 27 27 27 26 26 26 26 26 26 26 26 26 26 25 25 25 24 24 23 23 23 24 24 25 27 28 28 29
25 25 25 26 26 26 26 26 27 27 27 27 28 28 28 28 28 27 27 27 26 26 26 27 27 27 28 28 29 30 31 31 32 32 32 32 31 31 31 30 30 30 30 30 30 30 30 29 28 28 28 29 29 28 27 26 26 26 26 27 27 27 26 26 26 27 27 26 26 26 26 26 26 25 25 24 24 23 23 23 24 25 26 27 28 28
Wind_Direction
279 284 286 286 286 285 285 285 285 286 288 290 292 293 293 293 292 292 292 292 291 291 289 288 287 286 284 283 282 280 279 279 278 278 278 277 277 277 277 277 278 278 279 279 279 279 280 280 280 280 280 280 281 281 281 282 282 282 282 283 283 283 283 284 284 285 285 285 286 286 287 288 289 290 290 291 292 293 293 293 293 293 293 293 293 294
284 287 287 286 285 284 283 283 284 286 288 290 291 291 291 291 291 290 290 289 289 288 286 285 284 283 281 280 279 278 277 277 277 277 277 277 277 277 278 278 278 278 278 279 279 279 280 280 280 280 280 281 281 281 281 282 282 282 282 282 283 283 283 284 284 285 285 286 286 287 287 288 289 289 290 291 292 293 293 293 293 293 293 293 293 293
285 286 285 284 284 283 282 283 284 286 288 289 290 289 289 289 289 288 288 287 286 285 283 282 281 279 278 277 276 276 276 276 276 276 277 277 278 278 279 279 279 279 279 279 279 279 280 280 280 280 280 281 281 281 282 282 282 282 282 282 282 283 283 284 284 285 285 286 286 287 288 289 289 289 290 291 292 293 293 293 293 293 293 292 292 292
283 283 283 283 283 282 282 283 285 287 288 288 288 287 287 287 287 286 285 284 283 281 280 279 278 277 276 275 275 275 275 276 276 276 277 277 278 279 279 279 279 279 279 279 280 280 280 280 280 281 281 281 281 281 281 281 281 281 281 282 282 282 283 283 284 284 285 286 286 287 288 289 290 290 291 292 292 293 293 293 293 293 292 292 291 291
279 281 281 282 282 282 283 284 285 286 286 286 285 285 285 285 284 284 282 281 280 279 278 277 276 275 274 274 275 275 276 276 276 277 277 278 279 279 279 279 279 279 280 280 280 281 281 281 281 281 281 281 281 281 281 281 281 281 281 281 281 282 282 283 283 284 285 286 286 287 288 289 290 291 291 292 292 292 292 293 292 292 292 291 291 291
277 278 279 280 281 282 283 284 285 285 284 284 283 284 283 283 282 280 279 277 276 276 275 275 275 274 274 275 275 276 276 277 277 277 278 278 279 279 279 279 279 279 280 280 281 281 281 281 281 282 282 282 282 281 281 281 281 281 281 281 281 281 282 282 283 283 284 285 286 287 288 289 290 290 291 291 291 291 291 291 291 290 290 290 290 290
276 277 278 279 280 281 282 283 283 283 282 282 282 282 281 280 279 277 275 274 273 273 273 273 274 274 275 275 276 276 276 277 277 277 278 278 278 278 278 278 279 279 280 280 281 281 281 281 282 282 282 282 282 282 281 281 281 280 280 280 280 281 281 281 282 283 284 285 286 287 288 288 289 290 290 291 291 291 291 291 290 290 289 289 289 289
276 277 278 279 280 280 281 281 281 281 281 281 280 280 279 277 275 273 272 270 270 270 271 271 273 274 275 276 277 277 277 277 277 277 277 278 278 278 278 278 279 279 280 280 281 281 281 282 282 282 282 282 282 282 281 281 281 281 280 280 280 280 281 281 282 283 284 285 286 287 288 288 289 290 291 291 291 291 291 291 291 290 290 290 289 289
276 277 277 278 279 279 279 279 279 279 279 279 278 277 275 273 272 270 269 268 268 268 269 270 272 274 276 277 277 277 277 277 277 277 278 278 278 278 278 278 279 280 281 281 281 281 281 282 282 282 282 282 282 282 282 281 281 281 281 281 281 281 281 281 282 283 284 285 286 287 288 289 290 290 291 291 292 292 292 292 292 291 290 290 290 289
276 276 277 277 277 277 277 278 278 278 277 277 275 274 272 270 268 267 266 267 267 268 269 270 272 274 276 277 277 277 277 278 278 278 279 279 278 278 279 280 280 281 281 282 282 282 282 282 282 282 282 282 282 282 282 282 281 281 281 281 281 282 282 283 283 284 285 286 287 287 288 289 290 290 291 292 292 292 293 293 292 292 292 291 291 290
275 275 275 275 275 276 276 276 276 276 275 274 272 270 268 267 266 265 265 266 267 269 270 271 272 274 275 276 276 277 278 278 279 280 280 280 280 279 280 281 282 282 283 283 283 283 283 283 283 283 282 282 282 282 282 282 282 282 282 282 282 283 283 284 285 286 286 287 287 288 289 289 290 290 291 292 292 292 293 293 293 293 293 292 292 291
274 274 274 274 274 275 275 274 274 273 271 270 268 267 265 264 264 265 266 267 268 269 271 272 273 273 274 274 275 276 278 279 280 280 280 280 280 280 281 282 283 283 284 283 283 283 283 283 283 283 283 283 282 282 282 282 282 282 282 283 283 284 285 286 286 287 287 288 289 289 290 290 291 291 292 292 293 293 293 293 293 293 293 293 292 292
273 273 273 273 273 273 272 271 270 269 267 266 265 264 263 263 264 266 267 268 269 270 272 273 273 274 274 274 274 275 277 278 279 280 280 280 280 281 282 283 284 284 284 284 283 283 283 283 283 283 283 283 282 282 282 282 282 282 283 283 284 285 286 287 288 288 289 289 290 290 291 291 292 292 293 293 293 293 293 294 294 294 294 293 293 292
272 272 272 272 271 270 269 268 266 264 263 262 261 262 263 264 266 267 269 271 271 272 273 274 274 274 275 275 275 275 276 277 278 279 280 280 280 281 282 283 284 284 284 283 283 283 283 283 283 283 283 283 283 282 282 282 283 283 284 284 285 286 287 288 289 289 290 290 291 291 292 293 293 293 294 294 294 294 294 294 294 294 294 293 293 293
270 269 269 268 267 266 265 263 261 260 260 260 260 262 264 266 268 270 272 272 273 274 275 275 275 276 276 276 276 276 277 277 278 279 280 280 280 281 282 283 284 283 283 283 283 283 283 283 283 283 283 283 283 283 283 283 284 284 285 286 287 287 288 289 290 290 291 292 292 293 293 294 294 294 294 294 294 294 295 294 294 294 294 293 293 292
267 266 265 264 263 261 260 258 257 258 258 260 262 264 267 268 270 272 272 273 273 274 275 276 277 278 278 278 278 278 278 278 279 280 280 280 281 282 283 283 283 283 283 283 283 283 283 284 284 284 284 284 284 284 284 285 285 286 287 287 288 289 290 290 291 292 292 293 293 294 294 294 295 295 295 295 295 295 294 294 294 294 293 293 293 292
263 262 261 259 258 257 256 255 256 257 259 262 265 267 269 270 271 271 272 272 273 274 275 276 277 278 279 280 280 279 279 280 280 281 281 281 281 282 283 284 283 283 283 284 284 284 284 285 285 285 285 285 285 285 286 286 287 288 289 289 290 291 291 292 292 293 293 294 294 295 295 295 295 295 295 295 295 294 294 294 293 293 293 292 292 292
258 257 256 255 254 254 254 255 257 259 262 265 268 270 271 272 271 271 271 272 273 274 275 276 277 278 279 279 279 280 281 281 281 282 282 282 282 283 284 284 284 284 284 285 285 285 285 286 286 286 286 286 287 287 288 288 289 290 290 291 291 292 292 293 293 294 294 294 295 295 295 295 295 295 295 295 294 294 294 293 293 293 292 292 292 291
252 251 251 251 252 253 255 257 260 263 266 268 270 271 272 272 272 272 272 272 273 274 275 276 277 277 278 278 279 280 281 282 282 283 283 283 283 283 284 285 284 285 285 285 286 286 286 286 287 287 287 287 288 288 289 289 290 291 291 292 292 293 293 294 294 295 295 295 295 295 295 295 295 295 295 294 294 294 293 293 293 292 292 291 291 291
247 247 248 249 252 255 258 261 264 266 268 270 271 271 271 272 272 273 273 274 275 276 277 277 277 278 278 278 279 280 281 282 283 283 284 283 283 284 284 285 285 285 285 286 286 286 287 287 287 288 288 288 289 289 290 290 291 291 292 293 293 294 294 295 295 295 295 295 295 295 295 295 295 294 294 294 293 293 293 292 292 292 291 291 290 290
244 246 248 251 254 258 261 263 266 268 269 270 271 271 272 273 274 274 275 276 277 278 278 278 278 279 279 279 279 280 282 283 283 284 284 284 284 284 284 284 285 285 286 286 287 287 287 288 288 288 289 289 289 290 290 291 291 292 292 293 293 294 294 295 295 295 295 296 295 295 295 295 294 294 294 293 293 293 292 292 292 291 291 290 290 290
244 247 251 254 257 260 262 264 266 268 268 269 270 271 272 273 274 276 277 278 279 279 279 279 279 279 279 279 279 280 282 283 283 284 284 284 284 284 284 285 286 286 286 287 287 287 288 288 289 289 289 289 290 290 290 291 291 292 292 293 293 294 294 295 295 295 295 295 295 295 295 294 294 294 293 293 293 292 292 292 291 291 291 290 290 290
247 250 253 256 258 260 262 264 265 266 268 268 270 271 272 274 275 276 278 279 279 279 279 279 279 279 279 279 279 280 281 282 283 284 284 284 285 285 285 286 286 287 287 287 287 288 288 289 289 289 289 290 290 290 291 291 291 292 292 292 293 293 294 294 294 295 295 295 295 295 294 294 294 293 293 293 292 292 292 291 291 291 291 290 290 290
250 252 255 257 258 260 261 263 264 265 267 268 269 271 272 274 275 276 277 278 278 278 278 278 279 279 279 280 280 281 281 282 283 284 284 284 285 285 286 286 287 288 288 287 287 288 288 289 289 289 289 290 290 290 291 291 291 291 292 292 292 293 293 294 294 294 294 294 294 294 294 294 293 293 293 292 292 291 291 291 291 290 290 290 290 290
252 254 255 257 258 260 261 263 264 266 267 269 270 272 273 274 275 276 277 277 277 278 278 278 279 279 280 281 281 281 282 283 284 284 285 285 285 285 286 286 287 288 288 288 288 288 288 288 289 289 289 290 290 290 290 291 291 291 292 292 293 293 293 294 294 294 294 294 293 293 293 293 293 292 292 292 291 291 291 290 290 290 290 290 290 290
252 254 256 257 259 260 262 264 265 267 269 270 272 273 274 275 276 277 277 277 278 278 278 279 279 280 281 282 282 283 283 284 285 285 285 285 285 285 285 286 287 287 287 287 287 287 287 288 288 289 289 289 289 290 290 290 291 292 292 293 293 294 294 294 294 294 294 293 293 293 293 292 292 292 291 291 291 290 290 290 290 290 290 290 290 290
252 254 256 257 259 261 263 265 267 269 270 272 273 274 275 276 276 277 277 278 278 278 279 279 280 281 282 282 283 283 284 285 285 285 285 285 285 285 285 285 286 286 286 286 286 287 287 287 288 288 289 289 289 290 290 291 292 292 293 293 294 294 294 294 294 294 294 293 293 292 292 292 291 291 291 290 290 290 290 290 289 290 290 290 290 290
252 254 256 258 260 263 265 267 269 271 272 274 274 275 275 276 277 277 277 277 278 278 279 279 280 281 282 282 283 283 284 284 284 284 284 284 283 283 284 284 285 285 285 285 286 286 286 287 287 287 288 288 289 290 291 291 292 293 293 294 294 294 294 294 294 294 293 293 293 292 292 291 291 290 290 290 289 289 289 289 289 290 290 290 290 290
253 255 257 259 261 264 267 269 271 272 273 274 274 275 275 275 275 276 276 276 277 277 278 279 279 280 280 280 281 282 282 282 282 282 282 282 282 282 283 283 284 284 285 285 285 286 286 286 287 287 288 288 289 290 291 291 292 293 293 294 294 294 294 294 294 293 293 293 292 292 291 291 291 290 290 289 289 289 289 289 289 290 290 291 291 291
253 255 258 260 263 265 267 269 270 272 272 272 273 273 273 273 274 274 274 275 275 276 277 277 278 278 278 278 279 280 281 281 280 280 280 281 281 281 282 283 284 284 284 284 285 286 286 286 287 287 288 288 290 290 291 292 293 293 293 294 294 294 294 293 293 293 292 292 292 291 291 291 290 290 290 290 289 289 289 289 290 290 291 291 291 291
253 255 258 260 262 264 266 267 268 269 269 269 269 270 270 271 271 271 272 273 274 274 275 276 277 277 277 278 278 278 279 280 280 280 281 281 281 282 282 283 284 284 284 285 285 286 287 287 287 288 288 289 290 291 292 293 293 294 294 294 294 294 294 294 293 293 293 292 292 291 291 291 290 290 290 290 290 290 290 290 291 291 291 292 292 292
254 256 257 259 260 262 263 263 264 265 265 266 266 267 268 269 270 270 271 273 274 274 275 276 277 278 278 279 279 279 279 280 280 281 282 282 282 282 283 283 284 284 285 285 286 286 286 287 288 289 289 290 291 292 293 294 294 294 295 295 295 294 294 294 293 293 292 292 292 291 291 291 290 290 290 290 290 291 291 291 292 292 292 293 293 293
256 257 258 259 260 261 261 262 263 264 264 265 266 267 269 270 271 272 273 274 275 276 277 277 278 279 280 280 280 280 280 281 281 282 282 283 283 283 283 283 283 284 285 286 286 287 287 287 288 289 290 291 292 292 293 294 294 295 295 295 294 294 294 293 293 292 292 292 291 291 291 291 290 291 291 291 291 292 292 292 293 293 293 294 294 294
259 260 261 262 262 263 263 264 265 266 267 268 269 271 272 274 275 276 276 277 278 278 279 279 279 280 280 281 281 282 282 282 282 282 282 282 282 282 283 283 283 284 285 285 286 287 287 287 288 289 290 291 291 292 293 294 294 294 294 294 294 294 293 293 292 292 292 291 291 291 291 291 291 291 291 292 292 293 293 294 294 294 295 295 295 295
260 261 263 264 265 266 267 268 269 270 271 272 273 274 275 277 277 278 279 279 280 280 280 280 280 281 281 281 281 282 282 282 282 282 282 282 282 282 282 282 283 283 284 284 285 286 287 287 288 289 290 291 292 292 293 294 294 294 294 294 294 293 293 293 292 292 292 291 291 291 291 291 291 292 292 293 293 294 294 295 295 296 296 296 296 296
262 263 264 266 267 268 269 270 271 272 273 274 275 276 277 278 279 280 280 281 281 281 281 281 281 281 281 281 281 281 281 281 281 282 282 282 282 282 282 282 282 283 283 284 284 285 286 287 287 289 290 291 292 293 294 294 294 295 294 294 294 294 293 293 292 292 292 291 291 291 291 291 291 292 292 293 294 295 295 296 296 297 297 298 298 298
265 267 268 270 271 272 273 274 275 276 277 278 278 279 280 281 281 282 282 282 282 282 281 281 281 281 281 281 281 281 281 280 281 281 281 281 281 282 282 282 282 282 283 283 284 285 285 286 287 289 290 291 292 293 294 294 294 294 294 294 294 293 293 293 292 292 291 291 291 290 290 291 291 292 292 293 294 295 296 296 297 298 298 299 299 299
268 270 272 274 275 276 278 279 280 281 281 282 283 283 283 284 284 284 283 283 282 282 281 281 281 281 281 281 281 280 280 280 280 280 280 281 281 281 281 282 282 282 283 283 284 284 285 286 287 289 290 292 293 293 294 294 294 294 293 293 293 293 292 292 291 291 290 290 290 289 290 290 291 291 292 293 294 295 296 296 297 298 299 300 300 301
268 270 272 274 275 277 278 280 281 283 283 284 285 286 286 286 286 285 284 283 283 282 281 281 281 281 280 280 280 280 280 280 280 280 280 280 281 281 281 282 282 283 283 284 284 284 285 286 287 288 290 291 292 293 293 293 293 293 292 292 292 291 291 290 290 289 289 288 288 288 289 290 291 292 292 293 294 295 296 297 298 299 300 301 301 302
266 268 270 271 273 275 277 279 280 283 284 286 287 288 288 288 288 287 286 285 283 282 282 281 280 280 280 280 280 280 280 280 280 280 280 280 281 281 282 282 282 283 284 284 285 285 285 286 287 288 289 290 291 292 292 292 292 292 292 292 291 290 290 289 289 288 288 288 288 288 289 290 291 292 293 293 295 295 296 297 298 299 300 301 302 302
264 266 268 269 271 274 276 278 281 283 285 287 289 290 291 291 291 290 288 287 285 283 282 281 280 279 279 279 279 279 280 280 280 280 280 281 281 282 282 283 283 283 284 284 285 285 286 286 287 288 289 289 290 291 291 291 291 291 291 291 290 290 289 289 288 288 288 288 288 289 289 290 291 292 293 294 295 296 297 298 299 300 301 302 302 303
263 265 267 269 271 274 276 279 282 285 287 289 291 293 294 294 294 293 291 289 287 285 283 281 280 279 279 279 279 279 280 280 281 281 281 281 281 282 283 283 284 284 284 285 285 285 286 286 287 287 288 289 289 289 289 289 289 289 289 289 290 290 289 289 289 288 288 288 289 289 290 291 292 293 293 295 296 297 298 299 300 301 302 302 303 303
264 266 268 270 272 275 278 281 283 286 289 291 293 295 296 297 297 296 295 293 290 288 285 283 281 279 279 278 279 279 280 280 281 281 281 281 282 282 283 283 284 284 285 285 285 285 286 286 287 287 288 288 288 288 288 288 288 288 288 288 288 288 288 288 288 288 288 289 289 290 290 291 292 293 294 295 296 297 298 299 300 301 302 303 303 304
266 267 269 271 274 277 280 282 285 287 290 292 294 296 297 298 298 298 297 295 293 291 288 286 284 282 280 279 279 279 279 280 280 281 281 282 282 283 283 283 284 284 285 285 285 285 286 286 287 287 287 288 287 287 286 286 286 286 286 286 287 287 287 287 287 288 288 288 289 290 290 291 292 293 294 295 296 297 299 300 301 302 302 303 303 304
268 269 271 273 276 279 281 284 286 288 290 292 294 295 296 297 298 298 297 296 295 293 290 288 286 284 283 282 281 280 280 280 280 280 281 281 282 282 283 283 284 284 285 285 285 285 285 285 286 287 287 287 287 286 286 285 285 285 286 286 286 286 285 285 286 286 287 288 289 289 290 291 292 293 294 295 296 298 299 300 301 302 302 303 303 304
269 271 273 275 278 280 282 284 286 288 290 292 293 295 296 296 297 297 297 296 295 294 292 290 288 286 284 283 282 282 281 281 281 281 281 281 281 282 282 283 283 284 285 285 285 286 286 285 286 286 287 287 287 286 285 284 284 285 285 285 285 285 284 284 284 285 286 287 288 289 290 291 292 293 294 295 296 298 299 300 301 301 302 302 303 304
271 273 275 277 279 281 283 285 286 288 290 292 293 294 295 296 296 296 296 296 295 294 293 291 289 287 285 284 283 283 282 282 281 281 281 281 281 281 282 282 283 283 284 285 285 286 286 286 286 286 286 286 286 285 284 284 284 284 284 285 285 284 284 283 284 284 285 286 287 288 289 291 292 292 293 295 296 298 299 300 301 302 302 303 304 305
274 275 277 278 280 282 283 285 286 288 290 291 293 294 295 296 296 296 296 296 295 295 294 293 291 289 286 285 284 283 283 282 282 281 281 280 280 280 281 281 282 283 283 284 285 285 285 286 286 286 286 285 284 283 283 283 284 284 284 284 284 284 283 283 284 284 285 286 287 288 289 290 291 292 293 294 296 297 299 300 301 302 303 304 305 306
277 278 279 280 281 282 283 284 286 287 289 290 292 293 295 295 296 296 296 296 296 296 296 294 293 290 288 286 285 284 283 282 281 281 280 280 279 279 280 280 281 282 282 283 283 284 284 285 285 286 285 284 283 282 282 282 283 284 284 284 283 283 283 283 284 284 285 286 287 288 289 290 291 292 293 294 295 297 298 299 300 302 303 303 304 305
279 280 280 281 281 282 283 284 285 286 287 289 291 292 294 295 296 297 297 297 297 298 297 297 295 293 291 289 287 285 284 283 282 281 280 280 279 279 279 280 280 281 281 282 282 282 282 283 284 284 284 283 282 281 281 281 282 283 283 283 282 282 282 282 283 284 285 286 287 288 289 290 291 292 293 294 295 296 297 298 299 300 301 302 303 304
280 280 281 281 281 282 283 283 284 285 286 288 290 292 293 295 296 296 297 297 298 298 298 298 297 295 293 291 289 287 285 284 283 282 282 281 281 280 280 280 280 280 281 281 281 281 281 281 281 282 283 283 282 281 281 281 281 282 282 282 282 282 281 282 282 283 284 285 287 288 289 290 291 292 293 294 295 296 297 298 299 299 299 300 301 302
Height
3100 3100 3100 3100 3099 3099 3098 3097 3096 3096 3095 3096 3095 3095 3094 3094 3093 3093 3092 3091 3091 3091 3090 3090 3090 3090 3089 3089 3089 3089 3089 3089 3089 3089 3089 3089 3089 3089 3089 3089 3088 3088 3088 3088 3088 3088 3088 3088 3088 3088 3088 3088 3088 3087 3087 3087 3087 3087 3086 3086 3086 3086 3085 3085 3085 3085 3085 3085 3085 3084 3084 3084 3084 3083 3083 3083 3082 3082 3082 3081 3081 3081 3080 3080 3079 3079
3098 3098 3098 3098 3097 3097 3096 3095 3094 3094 3094 3093 3093 3093 3092 3092 3092 3091 3090 3090 3089 3089 3089 3088 3088 3088 3088 3088 3088 3088 3088 3088 3088 3088 3088 3088 3088 3088 3088 3088 3088 3088 3088 3087 3087 3087 3087 3087 3087 3087 3087 3086 3086 3086 3086 3086 3085 3085 3085 3085 3084 3084 3084 3084 3083 3083 3083 3083 3083 3083 3083 3083 3083 3082 3082 3081 3081 3081 3080 3080 3080 3079 3079 3078 3078 3078
3096 3095 3095 3095 3095 3094 3093 3093 3093 3092 3092 3091 3091 3091 3090 3090 3090 3089 3088 3088 3088 3087 3087 3087 3087 3087 3087 3087 3087 3087 3087 3087 3087 3087 3087 3086 3086 3086 3086 3086 3086 3086 3086 3086 3086 3086 3086 3086 3086 3085 3085 3085 3085 3085 3084 3084 3084 3084 3083 3083 3083 3083 3083 3082 3082 3082 3082 3082 3082 3081 3081 3081 3081 3081 3080 3080 3080 3079 3079 3078 3078 3078 3077 3077 3077 3076
3093 3093 3093 3093 3092 3092 3091 3091 3090 3090 3090 3089 3089 3088 3088 3088 3088 3087 3087 3086 3086 3086 3086 3086 3085 3085 3085 3085 3085 3085 3085 3085 3085 3085 3085 3085 3085 3085 3085 3085 3085 3085 3085 3085 3085 3085 3084 3084 3084 3084 3084 3084 3083 3083 3083 3083 3083 3083 3082 3082 3082 3082 3081 3081 3081 3081 3080 3080 3080 3080 3080 3079 3079 3079 3079 3078 3078 3078 3078 3077 3077 3076 3076 3076 3075 3075
3091 3091 3090 3090 3089 3089 3089 3088 3088 3088 3088 3087 3087 3087 3087 3086 3086 3086 3085 3085 3084 3084 3084 3084 3084 3084 3084 3084 3084 3084 3084 3084 3084 3084 3084 3084 3084 3084 3084 3084 3084 3083 3083 3083 3083 3083 3083 3083 3083 3083 3083 3082 3082 3082 3082 3082 3081 3081 3081 3081 3080 3080 3080 3080 3079 3079 3079 3079 3078 3078 3078 3078 3078 3078 3077 3077 3077 3076 3076 3076 3075 3075 3074 3074 3074 3073
3089 3088 3088 3087 3087 3087 3086 3086 3086 3086 3085 3085 3085 3085 3085 3084 3084 3084 3083 3083 3083 3083 3083 3083 3083 3083 3083 3083 3083 3083 3083 3083 3083 3083 3083 3083 3083 3083 3083 3083 3082 3082 3082 3082 3082 3082 3082 3082 3081 3081 3081 3081 3081 3080 3080 3080 3080 3080 3079 3079 3079 3079 3078 3078 3078 3078 3078 3078 3077 3077 3077 3077 3076 3076 3076 3076 3075 3075 3075 3074 3074 3073 3073 3073 3072 3072
3086 3086 3086 3085 3085 3084 3084 3084 3084 3083 3083 3083 3083 3083 3083 3083 3083 3082 3082 3082 3082 3082 3081 3081 3081 3081 3081 3081 3082 3082 3082 3082 3082 3082 3082 3082 3081 3081 3081 3081 3081 3081 3081 3081 3081 3081 3080 3080 3080 3080 3080 3079 3079 3079 3079 3078 3078 3078 3078 3078 3078 3077 3077 3077 3077 3077 3076 3076 3076 3076 3075 3075 3075 3074 3074 3074 3074 3073 3073 3073 3073 3072 3072 3071 3071 3071
3084 3083 3083 3083 3083 3082 3082 3082 3082 3082 3082 3081 3081 3081 3081 3081 3081 3081 3081 3080 3080 3080 3080 3080 3080 3080 3080 3080 3080 3080 3080 3080 3080 3080 3080 3080 3080 3080 3080 3080 3080 3080 3080 3079 3079 3079 3079 3079 3078 3078 3078 3078 3078 3078 3077 3077 3077 3077 3076 3076 3076 3076 3076 3076 3075 3075 3075 3075 3074 3074 3074 3073 3073 3073 3073 3072 3072 3072 3072 3071 3071 3071 3070 3070 3069 3069
3081 3081 3081 3081 3080 3080 3080 3080 3080 3080 3080 3079 3079 3079 3079 3079 3079 3079 3079 3079 3079 3079 3079 3079 3079 3079 3079 3079 3079 3079 3079 3079 3079 3079 3079 3079 3079 3078 3078 3078 3078 3078 3078 3078 3078 3078 3078 3078 3077 3077 3077 3077 3076 3076 3076 3076 3075 3075 3075 3075 3074 3074 3074 3074 3074 3074 3073 3073 3073 3073 3072 3072 3072 3071 3071 3071 3070 3070 3070 3069 3069 3069 3068 3068 3068 3068
3079 3079 3078 3078 3078 3078 3078 3078 3078 3078 3078 3078 3078 3078 3078 3078 3078 3078 3078 3078 3078 3078 3078 3078 3078 3078 3078 3078 3077 3077 3078 3078 3078 3078 3078 3078 3077 3077 3077 3077 3077 3077 3077 3077 3077 3076 3076 3076 3076 3076 3075 3075 3075 3074 3074 3074 3074 3073 3073 3073 3073 3073 3073 3073 3072 3072 3072 3072 3071 3071 3071 3070 3070 3070 3069 3069 3068 3068 3068 3068 3067 3067 3067 3066 3066 3066
3077 3077 3077 3077 3077 3077 3076 3076 3076 3076 3076 3076 3076 3076 3076 3076 3076 3076 3076 3077 3077 3077 3077 3077 3077 3077 3077 3076 3076 3076 3076 3076 3076 3076 3076 3076 3076 3076 3076 3076 3076 3076 3075 3075 3075 3075 3075 3074 3074 3074 3074 3073 3073 3073 3073 3073 3072 3072 3072 3072 3071 3071 3071 3071 3071 3070 3070 3070 3070 3069 3069 3069 3068 3068 3068 3067 3067 3067 3066 3066 3065 3065 3065 3064 3064 3064
3075 3075 3075 3075 3075 3075 3075 3075 3075 3075 3074 3074 3074 3074 3075 3075 3075 3075 3075 3075 3075 3075 3075 3075 3075 3075 3075 3075 3075 3075 3075 3075 3075 3075 3075 3075 3074 3074 3074 3074 3074 3074 3074 3074 3073 3073 3073 3073 3073 3073 3072 3072 3072 3072 3071 3071 3071 3070 3070 3070 3070 3069 3069 3069 3069 3069 3068 3068 3068 3068 3067 3067 3067 3066 3066 3066 3065 3065 3064 3064 3064 3063 3063 3063 3062 3062
3073 3073 3073 3073 3073 3073 3073 3073 3073 3073 3073 3073 3073 3073 3073 3073 3074 3074 3074 3074 3074 3074 3074 3074 3074 3074 3074 3074 3074 3073 3073 3073 3073 3073 3073 3073 3073 3073 3073 3073 3073 3073 3072 3072 3072 3072 3072 3072 3071 3071 3071 3071 3070 3070 3070 3069 3069 3069 3068 3068 3068 3068 3068 3068 3067 3067 3067 3066 3066 3066 3066 3065 3065 3065 3064 3064 3063 3063 3063 3062 3062 3062 3061 3061 3060 3060
3071 3071 3071 3071 3071 3071 3071 3071 3071 3071 3071 3071 3071 3072 3072 3072 3073 3073 3073 3073 3073 3073 3073 3073 3073 3073 3073 3073 3072 3072 3072 3072 3072 3072 3072 3072 3072 3071 3071 3071 3071 3071 3071 3071 3070 3070 3070 3070 3070 3069 3069 3069 3069 3068 3068 3068 3068 3067 3067 3067 3067 3066 3066 3066 3066 3065 3065 3065 3064 3064 3064 3063 3063 3063 3063 3062 3062 3061 3061 3061 3060 3060 3059 3059 3058 3058
3070 3070 3070 3070 3070 3070 3070 3070 3070 3070 3070 3070 3070 3071 3071 3071 3071 3071 3071 3071 3071 3071 3071 3071 3071 3071 3071 3071 3071 3071 3071 3071 3071 3071 3071 3071 3070 3070 3070 3070 3070 3070 3069 3069 3069 3069 3068 3068 3068 3068 3068 3068 3067 3067 3067 3066 3066 3066 3066 3065 3065 3065 3065 3064 3064 3064 3063 3063 3063 3063 3062 3062 3061 3061 3061 3060 3060 3059 3059 3059 3058 3058 3058 3057 3057 3056
3068 3068 3068 3068 3068 3068 3068 3068 3068 3068 3069 3069 3069 3069 3070 3070 3070 3070 3070 3070 3070 3070 3070 3070 3070 3069 3069 3069 3069 3069 3069 3069 3070 3070 3070 3069 3069 3068 3068 3068 3068 3068 3068 3068 3067 3067 3067 3067 3067 3067 3066 3066 3066 3066 3065 3065 3065 3064 3064 3064 3063 3063 3063 3063 3062 3062 3062 3061 3061 3061 3060 3060 3059 3059 3059 3058 3058 3058 3057 3057 3056 3056 3056 3055 3055 3054
3066 3066 3067 3067 3067 3067 3067 3067 3067 3068 3068 3068 3068 3068 3068 3069 3069 3069 3069 3069 3068 3068 3068 3068 3068 3068 3068 3068 3068 3068 3068 3068 3068 3068 3068 3068 3068 3067 3067 3067 3067 3067 3066 3066 3066 3066 3065 3065 3065 3065 3065 3064 3064 3064 3064 3063 3063 3063 3063 3062 3062 3062 3061 3061 3061 3060 3060 3060 3059 3059 3058 3058 3058 3057 3057 3056 3056 3056 3055 3055 3054 3054 3054 3053 3053 3053
3065 3065 3065 3065 3065 3066 3066 3066 3066 3066 3067 3067 3067 3067 3067 3068 3068 3068 3068 3068 3068 3067 3067 3067 3067 3067 3067 3067 3066 3066 3066 3067 3067 3067 3067 3067 3066 3066 3066 3066 3066 3065 3065 3064 3064 3064 3064 3064 3063 3063 3063 3063 3063 3063 3062 3062 3062 3061 3061 3061 3060 3060 3059 3059 3059 3058 3058 3058 3058 3057 3057 3056 3056 3055 3055 3054 3054 3054 3053 3053 3053 3052 3052 3051 3051 3051
3063 3064 3064 3064 3064 3064 3064 3065 3065 3065 3065 3066 3066 3066 3066 3066 3066 3066 3066 3066 3066 3066 3066 3066 3066 3066 3066 3065 3065 3065 3065 3065 3065 3065 3065 3065 3065 3064 3064 3064 3064 3064 3063 3063 3063 3063 3062 3062 3062 3062 3062 3061 3061 3061 3060 3060 3060 3059 3059 3059 3058 3058 3058 3057 3057 3057 3056 3056 3056 3055 3055 3054 3054 3053 3053 3053 3052 3052 3051 3051 3051 3050 3050 3049 3049 3048
3062 3063 3063 3063 3063 3063 3063 3063 3064 3064 3064 3064 3065 3065 3065 3065 3065 3065 3065 3065 3064 3064 3064 3064 3064 3064 3064 3064 3064 3063 3063 3064 3064 3064 3063 3063 3063 3063 3063 3063 3063 3063 3062 3062 3061 3061 3061 3060 3060 3060 3060 3060 3059 3059 3059 3058 3058 3058 3058 3057 3057 3056 3056 3056 3055 3055 3054 3054 3053 3053 3053 3052 3052 3051 3051 3050 3050 3049 3049 3049 3048 3048 3048 3047 3047 3047
3061 3061 3062 3062 3062 3062 3062 3063 3063 3063 3063 3063 3063 3063 3063 3063 3063 3063 3063 3063 3063 3063 3063 3063 3063 3063 3063 3063 3063 3062 3062 3062 3062 3062 3062 3062 3062 3061 3061 3061 3061 3061 3060 3060 3059 3059 3059 3059 3058 3058 3058 3058 3058 3058 3057 3057 3057 3056 3056 3055 3055 3055 3054 3054 3053 3053 3053 3052 3052 3051 3051 3050 3050 3049 3049 3048 3048 3047 3047 3047 3046 3046 3046 3045 3045 3044
3060 3060 3061 3061 3061 3061 3061 3061 3062 3062 3062 3062 3062 3062 3062 3062 3062 3062 3062 3062 3062 3062 3062 3062 3062 3062 3062 3062 3061 3061 3061 3061 3061 3061 3061 3060 3060 3059 3059 3059 3059 3059 3059 3058 3058 3058 3057 3057 3057 3057 3057 3056 3056 3056 3055 3055 3055 3054 3054 3054 3053 3053 3053 3052 3052 3051 3050 3050 3049 3049 3048 3048 3048 3047 3047 3046 3046 3045 3045 3044 3044 3044 3043 3043 3043 3042
3059 3059 3059 3060 3060 3060 3060 3060 3060 3060 3061 3061 3061 3061 3061 3061 3060 3060 3060 3060 3060 3060 3060 3060 3060 3060 3060 3060 3060 3059 3059 3059 3059 3059 3059 3059 3058 3058 3058 3058 3058 3058 3057 3057 3056 3056 3055 3055 3055 3055 3055 3054 3054 3054 3054 3053 3053 3053 3052 3052 3052 3051 3051 3050 3050 3049 3048 3048 3047 3047 3046 3046 3045 3045 3044 3044 3043 3043 3043 3042 3042 3041 3041 3041 3040 3040
3058 3058 3058 3058 3058 3058 3059 3059 3059 3059 3059 3059 3059 3059 3059 3059 3059 3059 3059 3059 3059 3059 3059 3059 3059 3059 3059 3059 3059 3058 3058 3058 3058 3058 3058 3057 3057 3056 3056 3056 3056 3056 3055 3055 3054 3054 3054 3053 3053 3053 3053 3053 3053 3052 3052 3051 3051 3051 3050 3050 3049 3049 3048 3048 3048 3047 3047 3046 3045 3045 3044 3044 3043 3043 3042 3042 3041 3041 3040 3040 3040 3039 3039 3038 3038 3038
3057 3057 3057 3057 3057 3057 3057 3058 3058 3058 3058 3058 3058 3058 3058 3058 3058 3058 3058 3058 3058 3058 3058 3058 3058 3058 3057 3057 3057 3057 3056 3056 3056 3056 3056 3056 3055 3055 3054 3054 3054 3054 3054 3053 3053 3052 3052 3052 3051 3051 3051 3051 3051 3050 3050 3049 3049 3048 3048 3048 3047 3047 3046 3046 3045 3045 3044 3044 3043 3043 3042 3042 3041 3041 3040 3040 3039 3039 3038 3038 3038 3037 3037 3036 3036 3035
3055 3055 3056 3056 3056 3056 3056 3056 3057 3057 3057 3057 3057 3057 3057 3057 3057 3057 3057 3057 3057 3057 3056 3056 3056 3056 3056 3056 3055 3055 3055 3054 3054 3054 3054 3054 3053 3053 3053 3053 3053 3052 3052 3052 3051 3051 3050 3050 3050 3049 3049 3049 3048 3048 3048 3048 3047 3047 3046 3046 3045 3045 3044 3044 3043 3043 3042 3042 3041 3041 3040 3040 3039 3038 3038 3038 3037 3037 3036 3036 3035 3035 3034 3034 3033 3033
3054 3054 3054 3055 3055 3055 3055 3055 3055 3055 3055 3055 3055 3055 3055 3055 3055 3055 3055 3055 3055 3055 3055 3055 3055 3054 3054 3054 3054 3053 3053 3053 3053 3053 3052 3052 3052 3051 3051 3051 3051 3050 3050 3050 3049 3049 3048 3048 3048 3048 3047 3047 3047 3046 3046 3045 3045 3044 3044 3043 3043 3043 3042 3041 3041 3040 3040 3039 3039 3038 3038 3038 3037 3036 3036 3035 3035 3034 3034 3033 3033 3033 3032 3032 3031 3031
3053 3053 3053 3053 3054 3054 3054 3054 3054 3054 3054 3054 3054 3054 3054 3054 3054 3054 3054 3054 3054 3054 3053 3053 3053 3053 3053 3053 3052 3052 3052 3051 3051 3051 3050 3050 3050 3050 3049 3049 3049 3049 3048 3048 3048 3047 3046 3046 3046 3045 3045 3045 3044 3044 3044 3043 3043 3043 3042 3042 3041 3040 3040 3039 3038 3038 3038 3037 3037 3036 3036 3035 3035 3034 3034 3033 3033 3032 3032 3031 3031 3031 3030 3030 3029 3028
3052 3052 3052 3052 3053 3053 3053 3053 3053 3053 3053 3053 3053 3053 3053 3053 3053 3053 3053 3053 3052 3052 3052 3052 3052 3051 3051 3051 3051 3050 3050 3050 3049 3049 3049 3048 3048 3048 3048 3047 3047 3047 3046 3046 3045 3045 3044 3044 3043 3043 3043 3043 3043 3042 3042 3041 3041 3040 3040 3039 3039 3038 3038 3037 3036 3036 3035 3035 3034 3034 3033 3033 3032 3032 3032 3031 3031 3030 3030 3029 3029 3028 3028 3028 3027 3026
3051 3051 3051 3051 3051 3051 3051 3051 3051 3051 3051 3051 3051 3051 3051 3051 3051 3051 3051 3051 3051 3050 3050 3050 3050 3050 3049 3049 3049 3048 3048 3048 3047 3047 3047 3047 3047 3046 3046 3045 3045 3045 3044 3044 3043 3043 3042 3042 3041 3041 3041 3041 3040 3040 3039 3039 3038 3038 3038 3037 3037 3036 3035 3035 3034 3033 3033 3033 3032 3032 3031 3031 3030 3030 3029 3029 3028 3028 3028 3027 3027 3026 3026 3025 3025 3024
3049 3049 3050 3050 3050 3050 3050 3050 3050 3050 3050 3050 3050 3050 3050 3050 3050 3050 3049 3049 3049 3049 3048 3048 3048 3048 3048 3048 3047 3047 3047 3046 3045 3045 3045 3045 3045 3044 3044 3043 3043 3043 3042 3042 3042 3041 3040 3039 3039 3038 3038 3038 3038 3038 3037 3037 3036 3036 3035 3035 3034 3033 3033 3033 3032 3031 3031 3030 3030 3029 3029 3028 3028 3028 3027 3027 3026 3026 3025 3025 3024 3024 3023 3023 3023 3022
3048 3048 3048 3048 3048 3048 3048 3048 3048 3048 3048 3048 3048 3048 3048 3048 3048 3048 3048 3048 3047 3047 3047 3047 3046 3046 3046 3046 3045 3045 3045 3044 3044 3043 3043 3043 3043 3043 3042 3042 3041 3041 3040 3040 3039 3039 3038 3038 3037 3036 3036 3036 3036 3036 3035 3034 3034 3033 3033 3032 3032 3031 3031 3030 3029 3029 3028 3028 3028 3027 3027 3026 3026 3025 3025 3024 3024 3023 3023 3023 3022 3022 3021 3021 3020 3020
3047 3047 3047 3047 3047 3047 3047 3047 3047 3047 3047 3047 3047 3047 3047 3047 3046 3046 3046 3046 3046 3045 3045 3045 3044 3044 3044 3044 3044 3043 3043 3043 3042 3042 3042 3041 3041 3041 3040 3040 3039 3039 3038 3038 3038 3037 3037 3036 3035 3034 3034 3034 3034 3033 3033 3032 3032 3031 3031 3030 3029 3029 3028 3028 3027 3027 3026 3026 3025 3025 3024 3024 3023 3023 3023 3022 3022 3021 3021 3020 3020 3019 3019 3018 3018 3017
3045 3045 3045 3045 3046 3046 3046 3046 3046 3046 3046 3046 3046 3045 3045 3045 3045 3045 3044 3044 3044 3044 3043 3043 3043 3043 3043 3042 3042 3042 3041 3041 3040 3040 3040 3039 3039 3039 3038 3038 3038 3037 3037 3036 3036 3035 3035 3034 3033 3032 3032 3031 3031 3031 3031 3030 3029 3029 3028 3028 3027 3027 3026 3026 3025 3025 3024 3024 3023 3023 3022 3022 3021 3021 3020 3020 3019 3019 3018 3018 3017 3017 3016 3016 3015 3015
3043 3044 3044 3044 3044 3044 3045 3045 3045 3045 3045 3044 3044 3044 3044 3044 3043 3043 3043 3043 3043 3042 3042 3042 3041 3041 3041 3041 3040 3040 3040 3039 3038 3038 3038 3038 3037 3037 3036 3036 3036 3035 3035 3034 3034 3033 3033 3032 3032 3031 3030 3029 3029 3029 3028 3028 3027 3027 3026 3026 3025 3024 3024 3023 3023 3023 3022 3022 3021 3021 3020 3020 3019 3018 3018 3018 3017 3017 3016 3015 3015 3014 3014 3013 3013 3012
3042 3043 3043 3043 3043 3043 3043 3043 3043 3043 3043 3043 3043 3043 3043 3042 3042 3042 3042 3041 3041 3041 3040 3040 3039 3039 3039 3039 3038 3038 3038 3037 3037 3036 3036 3035 3035 3035 3034 3034 3034 3033 3033 3033 3032 3032 3031 3031 3030 3029 3028 3027 3027 3026 3026 3025 3025 3024 3024 3023 3023 3022 3022 3021 3021 3020 3020 3019 3019 3018 3018 3018 3017 3016 3016 3015 3015 3014 3013 3013 3013 3012 3011 3011 3010 3009
3041 3041 3041 3042 3042 3042 3042 3042 3042 3042 3042 3042 3041 3041 3041 3041 3040 3040 3040 3039 3039 3039 3038 3038 3038 3037 3037 3037 3036 3036 3036 3035 3035 3034 3034 3033 3033 3033 3033 3032 3032 3031 3031 3031 3030 3030 3029 3029 3028 3027 3026 3025 3024 3024 3023 3023 3023 3022 3022 3021 3020 3020 3019 3019 3018 3018 3018 3017 3017 3016 3016 3015 3015 3014 3014 3013 3013 3012 3011 3011 3010 3009 3009 3008 3007 3007
3040 3040 3040 3040 3040 3040 3040 3040 3040 3040 3040 3039 3039 3039 3039 3038 3038 3038 3038 3037 3037 3037 3036 3036 3035 3035 3035 3034 3034 3034 3034 3033 3033 3032 3032 3031 3031 3031 3031 3030 3030 3029 3029 3029 3028 3028 3027 3027 3026 3025 3024 3023 3023 3022 3021 3020 3020 3020 3019 3019 3018 3018 3017 3017 3016 3016 3016 3015 3015 3014 3014 3013 3013 3012 3011 3011 3010 3010 3009 3008 3008 3007 3006 3006 3005 3004
3038 3038 3038 3038 3038 3038 3038 3038 3038 3038 3038 3038 3037 3037 3037 3037 3036 3036 3036 3035 3035 3034 3034 3034 3033 3033 3033 3032 3032 3032 3031 3031 3031 3030 3030 3029 3029 3029 3028 3028 3028 3027 3027 3027 3026 3026 3025 3025 3024 3023 3023 3022 3021 3019 3018 3018 3018 3017 3017 3017 3016 3016 3015 3015 3014 3014 3013 3013 3013 3012 3012 3011 3010 3010 3009 3008 3008 3007 3007 3006 3005 3004 3004 3003 3002 3001
3037 3037 3037 3037 3037 3037 3037 3037 3037 3036 3036 3036 3035 3035 3035 3035 3034 3034 3034 3033 3033 3033 3032 3032 3031 3031 3030 3030 3029 3029 3029 3029 3028 3028 3028 3028 3027 3027 3026 3026 3026 3025 3025 3024 3024 3023 3023 3023 3022 3022 3021 3020 3019 3018 3017 3016 3015 3015 3014 3014 3014 3013 3013 3013 3012 3012 3011 3011 3011 3010 3009 3009 3008 3008 3007 3006 3006 3005 3004 3003 3003 3002 3001 3000 3000 2999
3036 3036 3036 3036 3036 3036 3036 3035 3035 3035 3034 3034 3034 3033 3033 3033 3033 3032 3032 3031 3031 3031 3030 3030 3029 3029 3028 3028 3027 3027 3027 3027 3026 3026 3026 3025 3025 3025 3024 3024 3023 3023 3023 3022 3022 3021 3021 3020 3020 3019 3019 3018 3017 3016 3015 3014 3013 3013 3012 3012 3011 3011 3010 3010 3010 3009 3009 3009 3008 3008 3007 3007 3006 3005 3005 3004 3003 3003 3002 3001 3001 3000 2999 2998 2997 2997
3034 3034 3034 3034 3034 3034 3034 3033 3033 3033 3033 3033 3032 3032 3031 3031 3031 3030 3030 3029 3029 3029 3028 3028 3027 3027 3026 3026 3025 3025 3025 3024 3024 3024 3023 3023 3023 3023 3022 3022 3021 3021 3021 3020 3020 3019 3019 3018 3018 3017 3017 3016 3015 3014 3013 3012 3011 3011 3010 3010 3009 3008 3008 3008 3007 3007 3007 3006 3006 3006 3005 3004 3004 3003 3003 3002 3001 3000 3000 2999 2998 2997 2996 2996 2995 2994
3033 3033 3033 3033 3033 3033 3032 3032 3032 3031 3031 3031 3030 3030 3030 3029 3029 3028 3028 3028 3027 3027 3026 3026 3025 3025 3024 3024 3023 3023 3023 3022 3022 3022 3021 3021 3021 3020 3020 3020 3019 3019 3018 3018 3018 3017 3017 3016 3015 3015 3014 3014 3013 3012 3011 3010 3009 3008 3008 3008 3007 3006 3005 3005 3004 3004 3004 3004 3003 3003 3003 3002 3002 3001 3000 3000 2999 2998 2997 2997 2996 2995 2994 2993 2992 2991
3031 3031 3031 3031 3031 3031 3030 3030 3030 3030 3029 3029 3028 3028 3028 3027 3027 3026 3026 3026 3025 3025 3024 3024 3023 3023 3022 3022 3021 3021 3021 3020 3020 3019 3019 3019 3018 3018 3018 3018 3017 3017 3016 3016 3016 3015 3014 3014 3013 3013 3012 3012 3011 3010 3009 3008 3007 3006 3006 3006 3005 3005 3004 3003 3002 3002 3002 3002 3001 3001 3000 3000 2999 2999 2998 2997 2997 2996 2995 2994 2993 2992 2991 2991 2990 2989
3030 3030 3029 3029 3029 3029 3029 3028 3028 3028 3028 3027 3027 3026 3026 3025 3025 3024 3024 3023 3023 3023 3022 3022 3021 3021 3020 3020 3019 3019 3018 3018 3018 3018 3017 3017 3016 3016 3016 3015 3015 3014 3014 3013 3013 3013 3012 3012 3011 3010 3010 3009 3008 3008 3007 3006 3005 3004 3004 3003 3003 3003 3002 3001 3000 3000 2999 2999 2999 2998 2998 2998 2997 2997 2996 2995 2994 2993 2993 2992 2991 2990 2989 2988 2987 2987
3028 3028 3028 3028 3028 3027 3027 3027 3026 3026 3026 3025 3025 3024 3024 3023 3023 3023 3022 3022 3021 3021 3020 3020 3019 3019 3018 3018 3017 3017 3016 3016 3016 3015 3015 3014 3014 3013 3013 3013 3013 3012 3012 3011 3011 3010 3010 3009 3008 3008 3007 3007 3006 3005 3004 3003 3003 3002 3002 3001 3001 3000 3000 2999 2998 2998 2998 2997 2997 2996 2996 2995 2995 2995 2994 2993 2992 2991 2990 2989 2988 2987 2986 2985 2984 2984
3026 3026 3026 3026 3026 3025 3025 3025 3024 3024 3023 3023 3023 3023 3022 3022 3021 3021 3020 3020 3019 3018 3018 3018 3017 3017 3016 3015 3015 3014 3014 3013 3013 3013 3013 3012 3012 3011 3011 3010 3010 3010 3009 3009 3008 3008 3007 3007 3006 3005 3005 3004 3003 3003 3002 3001 3000 3000 2999 2999 2999 2998 2997 2997 2996 2996 2995 2995 2994 2994 2993 2993 2993 2992 2992 2991 2990 2989 2988 2987 2986 2985 2983 2983 2982 2981
3024 3024 3024 3024 3024 3023 3023 3023 3023 3022 3022 3021 3021 3021 3020 3020 3019 3019 3018 3018 3017 3017 3016 3015 3015 3014 3014 3013 3012 3012 3011 3011 3011 3010 3010 3010 3009 3008 3008 3008 3008 3007 3007 3006 3006 3005 3005 3004 3003 3003 3002 3002 3001 3000 2999 2998 2998 2998 2997 2997 2996 2996 2995 2994 2993 2993 2993 2993 2992 2992 2991 2991 2990 2990 2989 2989 2988 2988 2986 2985 2983 2982 2981 2980 2978 2978
3023 3023 3022 3022 3022 3022 3021 3021 3021 3020 3020 3019 3019 3018 3018 3018 3017 3017 3016 3015 3015 3014 3014 3013 3013 3012 3012 3011 3010 3009 3009 3008 3008 3008 3007 3007 3007 3006 3006 3005 3005 3004 3004 3003 3003 3003 3002 3002 3001 3000 2999 2998 2998 2998 2997 2996 2996 2995 2995 2994 2994 2993 2993 2992 2991 2991 2990 2990 2989 2989 2989 2988 2988 2988 2987 2987 2986 2985 2984 2983 2982 2980 2979 2977 2976 2975
3021 3020 3020 3020 3020 3019 3019 3019 3018 3018 3018 3017 3017 3016 3016 3015 3015 3014 3014 3013 3013 3012 3011 3011 3010 3010 3009 3009 3008 3007 3007 3006 3005 3005 3004 3004 3004 3003 3003 3002 3002 3001 3001 3001 3000 3000 2999 2999 2998 2998 2997 2996 2995 2994 2994 2994 2993 2993 2992 2992 2991 2991 2991 2990 2989 2988 2988 2988 2987 2987 2986 2986 2985 2985 2985 2984 2984 2983 2983 2982 2980 2978 2977 2976 2974 2973
3019 3018 3018 3018 3018 3018 3017 3017 3017 3016 3016 3015 3015 3014 3014 3013 3013 3012 3011 3011 3010 3009 3009 3008 3008 3008 3007 3006 3006 3005 3004 3003 3003 3002 3002 3001 3001 3000 3000 2999 2999 2998 2998 2998 2997 2997 2996 2996 2996 2995 2994 2993 2992 2991 2991 2991 2991 2991 2990 2989 2989 2988 2988 2988 2987 2986 2986 2985 2985 2984 2984 2983 2983 2983 2982 2982 2981 2981 2980 2979 2978 2977 2975 2974 2973 2972